#timestamp,LO_Frequency,Hit,StdDev 
1504170015.9,286047002.4,N,1.2
1504170035.7,286046999.8,N,1.2
1504170055.6,286047002.3,N,1.2
1504170075.4,286047002.7,N,1.2
1504170095.2,286047002.2,N,1.2
1504170115.1,286047002.1,N,1.2
1504170116.0,286047002.1,N,1.2
1504170135.8,286047002.3,N,1.2
1504170155.7,286047001.5,N,1.2
1504170175.5,286047001.8,N,1.1
1504170195.3,286047001.7,N,1.0
1504170215.2,286047004.4,Y,0.0
1504170235.0,286047000.8,P,0.5
1504170235.9,286047000.8,N,0.5
1504170255.8,286047001.0,N,0.4
1504170275.6,286047000.0,N,0.6
1504170295.5,286047000.4,N,0.6
1504170315.3,286046999.9,N,0.6
1504170335.1,286047000.9,N,0.6
1504170355.9,286046998.6,N,0.9
1504170375.7,286046998.3,N,1.0
1504170395.6,286046998.5,N,1.1
1504170415.4,286047000.7,N,1.1
1504170435.2,286047001.0,N,1.1
1504170455.1,286047001.1,N,1.0
1504170456.0,286047001.1,N,1.0
1504170475.8,286047001.1,N,1.0
1504170495.6,286047000.6,N,1.0
1504170515.5,286047000.9,N,1.0
1504170535.3,286047000.1,N,0.9
1504170555.2,286047000.4,N,0.9
1504170575.9,286047000.0,N,0.9
1504170595.7,286047000.7,N,0.9
1504170615.6,286047000.1,N,0.9
1504170635.4,286047000.0,N,0.9
1504170655.3,286047002.7,Y,0.0
1504170675.1,286047001.0,P,0.3
1504170695.8,286047000.6,N,0.3
1504170715.7,286046999.9,N,0.4
1504170735.5,286047001.0,N,0.4
1504170755.4,286047000.6,N,0.4
1504170775.2,286047000.3,N,0.4
1504170795.0,286047001.0,N,0.4
1504170795.9,286047001.0,N,0.4
1504170815.8,286047000.9,N,0.4
1504170835.6,286047000.0,N,0.4
1504170855.5,286046998.6,Y,0.0
1504170875.3,286046998.7,P,1.0
1504170895.1,286046998.2,N,1.0
1504170915.9,286047001.0,N,1.2
1504170935.7,286047000.9,N,1.2
1504170955.5,286047000.9,N,1.1
1504170975.4,286047001.0,N,1.1
1504170995.2,286047001.0,N,1.1
1504171015.1,286047000.9,N,1.0
1504171016.0,286047000.9,N,1.0
1504171035.8,286047000.4,N,0.9
1504171055.6,286046998.1,N,1.1
1504171075.5,286047001.1,N,1.1
1504171095.3,286047001.1,N,1.1
1504171115.2,286047000.8,N,1.0
1504171135.9,286046998.5,N,1.1
1504171155.7,286047000.8,N,1.1
1504171175.6,286047000.4,N,1.1
1504171195.4,286047000.3,N,1.0
1504171215.2,286047000.1,N,1.0
1504171235.1,286046999.8,N,1.0
1504171255.8,286047002.4,N,1.1
1504171275.2,286047000.4,N,1.0
1504171295.0,286047000.0,N,1.0
1504171295.9,286047000.0,N,1.0
1504171315.8,286047000.7,N,1.0
1504171335.6,286046998.5,N,1.0
1504171355.4,286047000.9,N,1.0
1504171375.3,286047000.5,N,1.0
1504171395.1,286047000.0,N,1.0
1504171415.8,286047000.7,N,1.0
1504171435.7,286047000.6,N,0.9
1504171455.5,286047001.2,N,0.9
1504171475.4,286047000.7,N,0.8
1504171495.2,286046998.6,N,0.9
1504171515.0,286047000.9,N,0.9
1504171515.9,286047000.9,N,0.9
1504171535.8,286046999.9,N,0.9
1504171555.6,286047001.2,N,0.9
1504171575.5,286047000.6,N,0.9
1504171595.3,286047000.3,N,0.9
1504171615.1,286047000.1,N,0.8
1504171635.9,286046999.9,N,0.8
1504171655.7,286047000.0,N,0.8
1504171675.6,286047000.6,N,0.8
1504171695.4,286046999.7,N,0.7
1504171715.2,286047000.6,N,0.7
1504171735.1,286047002.8,Y,0.0
1504171736.0,286047002.8,P,1.2
1504171755.8,286047000.5,N,1.1
1504171775.7,286047000.3,N,1.0
1504171795.5,286047000.0,N,1.0
1504171815.3,286047000.0,N,1.0
1504171835.2,286047000.5,N,0.9
1504171855.0,286047000.4,N,0.8
1504171855.9,286047000.4,N,0.8
1504171875.8,286047002.8,Y,0.0
1504171895.6,286047000.1,P,0.2
1504171915.4,286046999.9,N,0.3
1504171935.3,286047000.8,N,0.4
1504171955.1,286046999.9,N,0.4
1504171975.9,286047000.8,N,0.4
1504171995.7,286047000.6,N,0.4
1504172015.5,286046998.7,Y,0.0
1504172035.4,286046999.3,P,0.5
1504172055.2,286046999.2,N,0.5
1504172075.1,286046999.3,N,0.5
1504172076.0,286046999.3,N,0.4
1504172095.8,286047001.2,N,0.8
1504172115.6,286046998.3,N,0.9
1504172135.5,286047000.1,N,0.8
1504172155.3,286046998.1,N,0.9
1504172175.2,286047000.8,N,1.0
1504172195.9,286047000.9,N,1.0
1504172215.7,286047000.8,N,1.0
1504172235.6,286047001.0,N,1.0
1504172255.4,286047000.3,N,1.0
1504172275.2,286046999.7,N,0.9
1504172295.1,286047001.0,N,1.0
1504172296.0,286047001.0,N,1.0
1504172315.8,286047001.0,N,1.0
1504172335.7,286047000.4,N,0.9
1504172355.5,286047001.2,N,0.9
1504172375.3,286047000.6,N,0.9
1504172395.2,286047000.8,N,0.9
1504172415.0,286047000.6,N,0.9
1504172415.9,286047000.6,N,0.9
1504172435.8,286047000.8,N,0.9
1504172455.6,286047000.8,N,0.9
1504172475.4,286047000.6,N,0.8
1504172495.3,286047000.8,N,0.8
1504172515.1,286046999.9,N,0.8
1504172535.9,286047000.2,N,0.8
1504172555.7,286046999.8,N,0.8
1504172575.5,286046999.8,N,0.8
1504172595.4,286047002.0,N,0.8
1504172615.2,286047001.4,N,0.8
1504172635.1,286047002.5,Y,0.0
1504172636.0,286047002.5,P,1.0
1504172655.8,286047001.5,N,0.8
1504172675.6,286047001.5,N,0.7
1504172695.5,286047011.9,Y,0.0
1504172715.3,286046998.5,P,1.5
1504172735.2,286046998.3,N,1.5
1504172755.9,286047000.4,N,1.3
1504172775.7,286046998.5,N,1.3
1504172795.6,286046998.5,N,1.2
1504172815.4,286047001.2,N,1.3
1504172835.2,286047001.0,N,1.3
1504172855.1,286046998.8,N,1.3
1504172856.0,286046998.8,N,1.2
1504172875.8,286046998.4,N,1.2
1504172895.7,286046996.8,N,1.4
1504172915.5,286046997.6,N,1.4
1504172935.3,286046997.3,N,1.4
1504172955.2,286046997.2,N,1.4
1504172975.0,286046997.4,N,1.4
1504172975.9,286046997.4,N,1.4
1504172995.8,286046996.7,N,1.5
1504173015.6,286046997.7,N,1.4
1504173035.4,286046995.3,Y,0.0
1504173055.3,286046999.1,P,0.3
1504173075.1,286046999.2,N,0.3
1504173095.9,286046996.9,P,0.9
1504173115.7,286046997.2,Y,0.0
1504173135.5,286046999.3,P,0.4
1504173155.4,286046998.3,P,0.4
1504173175.2,286046998.7,N,0.4
1504173195.1,286046999.0,N,0.4
1504173196.0,286046999.0,N,0.3
1504173215.8,286046999.2,N,0.4
1504173235.6,286046996.5,Y,0.0
1504173255.5,286046999.0,P,0.1
1504173275.3,286046999.6,P,0.3
1504173295.1,286046998.7,P,0.3
1504173315.9,286046998.9,Y,0.0
1504173335.7,286046999.1,P,0.0
1504173355.6,286046999.6,P,0.3
1504173375.4,286046998.8,P,0.3
1504173395.2,286046998.1,Y,0.0
1504173415.1,286047000.5,P,0.7
1504173416.0,286047000.5,N,0.6
1504173435.8,286046998.5,N,0.9
1504173455.7,286047000.5,N,0.8
1504173475.5,286047001.0,N,0.9
1504173495.3,286047001.1,N,0.9
1504173515.2,286046999.0,N,0.9
1504173535.0,286046998.8,N,1.0
1504173535.9,286046998.8,N,1.0
1504173555.8,286046999.4,N,0.9
1504173575.6,286046998.2,N,1.0
1504173595.4,286046998.5,N,1.0
